Tallulah, LA

4:48 AM CDT on August 27, 2016 (GMT -0500)
Vicksburg Tallulah Regional

Weather History for KTVR - January, 2013

Change the Weather History Date:

Sunday, January 6, 2013

  Actual Average Record
Temperature  
Mean Temperature 43 °F 45 °F  
Max Temperature 55 °F 56 °F 75 °F (2008)
Min Temperature 30 °F 35 °F 19 °F (2014)
Degree Days  
Heating Degree Days 22 20  
Month to date heating degree days 135 119  
Since 1 July heating degree days 1072 1056  
Cooling Degree Days 0 0  
Month to date cooling degree days 0 0  
Year to date cooling degree days 0 0  
Moisture  
Dew Point 40 °F    
Average Humidity 82    
Maximum Humidity 100    
Minimum Humidity 64    
Precipitation  
Precipitation T in 0.17 in 1.69 in (1996)
Month to date precipitation 2.14 0.97  
Year to date precipitation 2.14 0.97  
Sea Level Pressure  
Sea Level Pressure 30.33 in    
Wind  
Wind Speed 4 mph (NNE)    
Max Wind Speed 8 mph    
Max Gust Speed 12 mph    
Visibility 10 miles    
Events      
T = Trace of Precipitation, MM = Missing Value Source: NWS Daily Summary

Daily Weather History Graph

Daily Weather History Graph

Search for Another Location

Airport or City:

Trip Planner

Search our weather history database for the weather conditions in past years. The results will help you decide how hot, cold, wet, or windy it might be!

Date:

Astronomy

Jan. 06, 2013 Rise Set
Actual Time 7:06 AM CST 5:14 PM CST
Civil Twilight 6:39 AM CST 5:41 PM CST
Nautical Twilight 6:08 AM CST 6:11 PM CST
Astronomical Twilight 5:39 AM CST 6:41 PM CST
Moon 1:28 AM CST (1/6) 12:35 PM CST (1/6)
Length of Visible Light 11h 01m
Length of Day
10h 07m
Waning Crescent, 33% of the Moon is Illuminated
Jan 6
Waning Crescent
Jan 11
New
Jan 18
First Quarter
Jan 26
Full
Feb 3
Last Quarter

Hourly Weather History & Observations

Time (CST) Temp. Windchill Dew Point Humidity Pressure Visibility Wind Dir Wind Speed Gust Speed Precip Events Conditions
12:53 AM 44.1 °F 42.5 °F 41.0 °F 89% 30.31 in 10.0 mi North 3.5 mph - 0.00 in   Overcast
1:53 AM 44.1 °F 42.5 °F 41.0 °F 89% 30.33 in 10.0 mi North 3.5 mph - N/A   Overcast
2:53 AM 44.1 °F 41.5 °F 42.1 °F 93% 30.32 in 10.0 mi North 4.6 mph - N/A   Overcast
3:03 AM 44.6 °F 43.1 °F 42.8 °F 93% 30.30 in 10.0 mi North 3.5 mph - N/A   Overcast
3:53 AM 43.0 °F 39.5 °F 41.0 °F 93% 30.32 in 9.0 mi North 5.8 mph - N/A   Overcast
4:19 AM 42.8 °F 39.3 °F 41.0 °F 93% 30.29 in 10.0 mi NNE 5.8 mph - N/A   Overcast
4:53 AM 43.0 °F - 42.1 °F 97% 30.32 in 9.0 mi Calm Calm - N/A   Overcast
5:33 AM 42.8 °F 38.6 °F 39.2 °F 87% 30.29 in 10.0 mi North 6.9 mph - N/A   Overcast
5:53 AM 43.0 °F 39.5 °F 39.9 °F 89% 30.32 in 10.0 mi North 5.8 mph - N/A   Overcast
6:53 AM 42.1 °F 38.4 °F 39.0 °F 89% 30.34 in 10.0 mi NNE 5.8 mph - N/A   Overcast
7:19 AM 42.8 °F 40.1 °F 39.2 °F 87% 30.32 in 10.0 mi North 4.6 mph - N/A   Overcast
7:53 AM 42.1 °F 38.4 °F 39.0 °F 89% 30.35 in 10.0 mi NE 5.8 mph - N/A   Overcast
8:53 AM 42.1 °F 38.4 °F 39.0 °F 89% 30.38 in 10.0 mi North 5.8 mph - N/A   Overcast
9:53 AM 43.0 °F 40.3 °F 39.9 °F 89% 30.40 in 10.0 mi NNE 4.6 mph - N/A   Overcast
10:53 AM 43.0 °F 39.5 °F 39.9 °F 89% 30.38 in 10.0 mi East 5.8 mph - N/A   Overcast
11:28 AM 44.6 °F 42.2 °F 39.2 °F 81% 30.34 in 10.0 mi NNE 4.6 mph - N/A   Overcast
11:53 AM 46.9 °F - 39.9 °F 77% 30.35 in 10.0 mi North 5.8 mph - N/A   Mostly Cloudy
12:48 PM 48.2 °F - 41.0 °F 76% 30.30 in 10.0 mi Calm Calm - N/A   Mostly Cloudy
12:53 PM 48.9 °F - 41.0 °F 74% 30.32 in 10.0 mi East 3.5 mph - N/A   Mostly Cloudy
1:53 PM 51.1 °F - 42.1 °F 71% 30.30 in 10.0 mi East 4.6 mph - N/A   Mostly Cloudy
2:10 PM 50.0 °F - 41.0 °F 71% 30.28 in 10.0 mi Calm Calm - N/A   Scattered Clouds
2:19 PM 51.8 °F - 41.0 °F 67% 30.28 in 10.0 mi Calm Calm - N/A   Mostly Cloudy
2:28 PM 51.8 °F - 41.0 °F 67% 30.28 in 10.0 mi Calm Calm - N/A   Partly Cloudy
2:53 PM 53.1 °F - 41.0 °F 64% 30.30 in 10.0 mi NW 5.8 mph - N/A   Partly Cloudy
3:53 PM 54.0 °F - 41.0 °F 62% 30.30 in 10.0 mi North 4.6 mph - N/A   Clear
4:53 PM 50.0 °F - 39.0 °F 66% 30.31 in 10.0 mi North 5.8 mph - N/A   Clear
5:53 PM 45.0 °F 42.6 °F 39.0 °F 80% 30.33 in 10.0 mi North 4.6 mph - N/A   Clear
6:53 PM 43.0 °F 40.3 °F 39.0 °F 86% 30.34 in 10.0 mi North 4.6 mph - N/A   Clear
7:53 PM 42.1 °F 39.2 °F 37.9 °F 85% 30.35 in 10.0 mi North 4.6 mph - N/A   Clear
8:53 PM 39.9 °F 37.8 °F 37.0 °F 89% 30.37 in 10.0 mi North 3.5 mph - N/A   Clear
9:53 PM 35.1 °F 32.2 °F 34.0 °F 96% 30.38 in 10.0 mi North 3.5 mph - N/A   Clear
10:53 PM 37.0 °F 34.5 °F 36.0 °F 96% 30.38 in 10.0 mi NNE 3.5 mph - N/A   Clear
11:53 PM 33.1 °F - 30.9 °F 92% 30.38 in 5.0 mi Calm Calm - N/A   Clear